Voltar ao catálogo

RASSVET-3 29

AtivoPO
NORAD 100095·PAYLOAD·🇷🇺 Russia

Lançado Jul 19, 2026 de Plesetsk Cosmodrome

Loading…

Próximas Passagens (próximas 24 horas)

TLE

AtualizadoSource: Space-Track

Época: Sep 14, 2026, 12:22 UTC

1 A0095U 26165N   26257.51574096  .00009149  00000-0  21949-3 0  9994
2 A0095  82.3009 168.4026 0009673  74.4463 285.7850 15.41166109  8904

Acompanhe RASSVET-3 29 em tempo real com AllMySat

Download on the App Store